Weather History for Haleyville, AL

Change the Weather History Date:

Monday, October 7, 2013

  Actual Average (KJFX) Record (KJFX)
Temperature  
Mean Temperature 56 °F -  
Max Temperature 66 °F 75 °F 89 °F (1981)
Min Temperature 46 °F 48 °F 33 °F (1978)
Degree Days  
Heating Degree Days 9    
Growing Degree Days 6 (Base 50)    
Moisture  
Dew Point 49 °F    
Average Humidity 78    
Maximum Humidity 100    
Minimum Humidity 52    
Precipitation  
Precipitation 0.01 in - - ()
Sea Level Pressure  
Sea Level Pressure 30.07 in    
Wind  
Wind Speed 4 mph (North)    
Max Wind Speed 14 mph    
Max Gust Speed 18 mph    
Visibility 10 miles    
Events      
Averages and records for this station are not official NWS values.
T = Trace of Precipitation, MM = Missing Value Source: NWS Daily Summary

Daily Weather History Graph

Daily Weather History Graph

Search for Another Location

Airport:

Trip Planner

Search our weather history database for the weather conditions in past years. The results will help you decide how hot, cold, wet, or windy it might be!

Date:

Astronomy

Oct. 07, 2013 Rise Set
Actual Time 6:49 AM CDT 6:26 PM CDT
Civil Twilight 6:24 AM CDT 6:51 PM CDT
Nautical Twilight 5:55 AM CDT 7:20 PM CDT
Astronomical Twilight 5:26 AM CDT 7:49 PM CDT
Moon 9:31 AM CDT (10/7) 8:19 PM CDT (10/7)
Length of Visible Light 12h 26m
Length of Day
11h 36m
Waxing Crescent, 9% of the Moon is Illuminated
Oct 7
Waxing Crescent
Oct 11
First Quarter
Oct 18
Full
Oct 26
Last Quarter
Nov 3
New

Hourly Weather History & Observations

Time (CDT) Temp. Dew Point Humidity Pressure Visibility Wind Dir Wind Speed Gust Speed Precip Events Conditions
12:56 AM 52.9 °F 52.9 °F 100% 30.00 in 10.0 mi Calm Calm - N/A   Clear
1:56 AM 52.9 °F 52.9 °F 100% 30.01 in 10.0 mi North 4.6 mph - N/A   Clear
2:56 AM 52.0 °F 50.0 °F 93% 30.01 in 10.0 mi North 6.9 mph - N/A   Clear
3:56 AM 48.9 °F 47.8 °F 96% 30.02 in 10.0 mi Calm Calm - N/A   Clear
4:56 AM 47.8 °F 46.9 °F 97% 30.03 in 10.0 mi North 4.6 mph - N/A   Clear
5:56 AM 46.9 °F 46.9 °F 100% 30.03 in 10.0 mi Calm Calm - 0.01 in   Clear
6:56 AM 46.9 °F 45.9 °F 96% 30.04 in 10.0 mi Calm Calm - N/A   Clear
7:56 AM 50.0 °F 48.9 °F 96% 30.06 in 10.0 mi Calm Calm - N/A   Clear
8:56 AM 55.9 °F 48.9 °F 77% 30.08 in 10.0 mi NNE 5.8 mph - N/A   Clear
9:56 AM 59.9 °F 46.9 °F 62% 30.09 in 10.0 mi NNE 5.8 mph - N/A   Clear
10:56 AM 61.9 °F 43.9 °F 52% 30.10 in 10.0 mi North 11.5 mph 18.4 mph N/A   Clear
11:56 AM 63.0 °F 46.9 °F 56% 30.10 in 10.0 mi North 13.8 mph - N/A   Clear
12:56 PM 64.9 °F 47.8 °F 54% 30.09 in 10.0 mi NNE 9.2 mph - N/A   Clear
1:56 PM 65.8 °F 47.8 °F 52% 30.08 in 10.0 mi NNW 11.5 mph - N/A   Clear
2:56 PM 66.9 °F 50.0 °F 54% 30.07 in 10.0 mi NNW 6.9 mph - N/A   Clear
3:56 PM 66.9 °F 50.0 °F 54% 30.07 in 10.0 mi NNW 9.2 mph 17.3 mph N/A   Clear
4:56 PM 65.8 °F 50.0 °F 57% 30.06 in 10.0 mi North 10.4 mph - N/A   Clear
5:56 PM 63.0 °F 50.9 °F 65% 30.08 in 10.0 mi North 6.9 mph - N/A   Clear
6:56 PM 55.9 °F 50.9 °F 83% 30.09 in 10.0 mi North 4.6 mph - N/A   Clear
7:56 PM 54.9 °F 50.0 °F 84% 30.10 in 10.0 mi North 3.5 mph - N/A   Clear
8:56 PM 52.9 °F 50.0 °F 90% 30.12 in 10.0 mi North 5.8 mph - N/A   Clear
9:56 PM 52.9 °F 50.0 °F 90% 30.13 in 10.0 mi North 5.8 mph - N/A   Clear
10:56 PM 52.9 °F 48.9 °F 86% 30.14 in 10.0 mi NNE 4.6 mph - N/A   Clear
11:56 PM 52.9 °F 47.8 °F 83% 30.13 in 10.0 mi North 6.9 mph - N/A   Clear